C/2021 C5 ( PanSTARRS )

Japanese version
Home page
Updated on April 4, 2021

---------------------------------------------------------------------

* Profile

Discovery Date February 12, 2021
Magnitude 21.0 mag
Discoverer Pan-STARRS 1 telescope (Haleakala)

* Pictures

* Orbital Elements

Epoch 2023 Feb. 25.0 TT = JDT 2460000.5
T 2023 Feb. 10.97466 TT                                 Rudenko
q   3.2413731            (2000.0)            P               Q
z  +0.0003062      Peri.  270.92438     -0.36136673     +0.81167915
 +/-0.0000851      Node   323.68213     -0.16787586     -0.54075407
e   0.9990074      Incl.   50.78928     -0.91718689     -0.22082117
From 60 observations 2020 Dec. 22-2021 Mar. 15, mean residual 0".4.

* Finding Charts

* Magnitudes Graph

        m1 = 8.5 + 5 log d + 10.0 log r

---------------------------------------------------------------------

The orbital elements are published on M.P.E.C. 2021-F115.
The charts are made with StellaNavigator Ver.10 (AstroArts).
The magnitudes graphs are made with Comet for Windows.

---------------------------------------------------------------------

Copyright(C) Seiichi Yoshida (comet@aerith.net). All rights reserved.